Theta_e
350 343 340 343 339 342 343 351 355 354 351 349 346 343 339 337 334 334 330 331 328 330
355 353 346 344 349 339 343 349 355 354 350 350 346 342 339 334 333 333 331 329 334 331
353 359 356 355 350 348 348 344 348 353 352 349 346 342 337 334 333 332 331 332 330 332
344 349 357 356 355 353 352 352 350 349 351 348 344 341 337 334 333 331 333 332 329 330
336 340 340 346 350 353 352 352 350 351 349 348 345 342 337 334 334 333 331 331 329 329
333 334 336 342 347 352 349 351 350 349 348 346 345 342 339 336 335 334 332 331 329 329
326 330 335 339 337 345 350 350 350 349 347 347 346 344 342 338 336 335 333 332 329 329
328 327 329 334 336 336 341 347 348 348 346 347 345 345 343 340 336 335 332 330 329 328
324 326 327 329 331 333 334 338 345 344 345 343 344 329 322 335 336 334 330 327 327 327
321 322 323 327 327 329 331 336 336 341 343 342 342 321 316 320 337 334 330 328 327 325
320 320 322 325 326 326 329 331 334 335 338 340 341 320 313 316 337 334 331 329 328 326
320 320 322 322 324 325 326 327 330 333 334 336 339 317 311 316 335 333 331 329 328 325
319 321 322 324 324 325 327 326 328 327 328 326 335 319 309 315 334 331 330 328 326 315
316 316 321 324 325 324 323 324 325 325 325 329 332 334 306 306 332 330 328 325 324 319
Wind_Speed
15 11 12 12 13 11 13 12 17 17 19 18 16 13 13 10 11 14 11 11 10 8
15 16 15 16 11 15 14 11 18 20 20 19 17 17 15 12 15 14 14 13 9 9
9 12 14 13 14 14 13 16 14 18 21 18 17 17 17 14 15 16 13 12 14 11
10 13 6 9 12 14 15 14 12 16 20 18 18 18 18 18 17 19 15 15 15 15
12 11 11 9 9 9 12 14 17 15 18 20 20 20 20 20 18 20 20 18 17 16
11 11 10 10 13 10 12 14 14 17 17 22 21 20 21 20 20 19 19 19 19 17
11 14 12 10 11 15 12 13 14 16 18 20 20 22 20 21 20 19 18 19 19 18
8 9 12 13 9 11 14 14 13 13 15 17 20 17 21 20 20 19 17 18 19 17
12 10 8 11 12 12 13 14 14 14 13 16 14 19 21 20 18 20 19 19 18 17
15 12 11 9 10 14 16 14 13 15 15 15 17 19 21 23 18 19 19 20 18 17
15 15 12 8 9 12 14 15 14 13 15 14 14 18 20 24 22 18 21 21 20 19
15 15 12 11 10 11 12 15 15 13 14 16 17 15 20 20 20 19 22 20 19 20
20 18 12 10 11 11 11 13 12 14 14 17 18 14 19 24 17 17 14 17 19 25
16 17 19 10 7 9 12 13 13 13 16 16 16 14 17 22 16 14 16 16 16 15
Wind_Direction
227 237 239 225 234 225 224 208 199 193 194 199 200 211 193 191 189 182 206 217 205 218
231 220 226 232 225 233 253 242 197 196 200 201 197 198 201 198 190 194 192 208 215 211
316 233 229 228 230 234 237 245 253 203 205 201 201 195 197 206 201 196 194 198 205 209
341 346 274 231 235 233 241 248 247 231 209 210 199 200 199 206 201 203 196 195 199 200
337 342 350 300 251 248 245 235 240 241 213 207 205 202 206 207 202 199 199 193 193 195
324 323 326 328 311 261 252 255 240 237 231 218 216 211 210 203 205 200 200 196 195 189
312 317 313 317 326 320 282 265 255 245 246 227 218 216 212 204 205 206 201 196 196 190
287 296 310 308 315 312 315 293 282 265 254 241 225 221 212 205 202 204 200 199 194 194
304 294 292 304 313 311 304 309 294 279 258 247 231 215 208 202 198 201 195 197 194 193
298 298 297 295 311 313 309 298 300 289 277 259 242 224 208 198 198 197 193 196 191 193
296 294 289 293 299 304 304 304 301 296 288 273 264 233 216 195 199 202 197 194 190 192
292 291 297 290 284 288 293 297 295 296 300 288 269 243 218 200 201 207 200 188 185 186
319 299 287 299 284 276 283 288 293 299 293 285 277 257 215 202 209 193 197 184 184 181
302 301 303 294 310 300 290 288 289 293 293 284 275 257 206 214 206 196 188 184 187 183